"Period start","avg(HW err(1)/warn(2) (#))","avg(Visibility (m))","avg(Weather code (#))","avg(Precip intensity (mm/h))","min(HW err(1)/warn(2) (#))","max(HW err(1)/warn(2) (#))","std(HW err(1)/warn(2) (#))","med(HW err(1)/warn(2) (#))","min(Visibility (m))","max(Visibility (m))","std(Visibility (m))","med(Visibility (m))","min(Weather code (#))","max(Weather code (#))","std(Weather code (#))","med(Weather code (#))","min(Precip intensity (mm/h))","max(Precip intensity (mm/h))","std(Precip intensity (mm/h))","med(Precip intensity (mm/h))"
2016-04-10 00:00:00,2,35770,0,0.00,2,2,0,2,23760,49981,7935,35764,0,0,0,0,0.00,0.00,0.00,0.00
2016-04-10 00:10:00,2,29948,0,0.00,2,2,0,2,18618,50000,8566,28428,0,0,0,0,0.00,0.00,0.00,0.00
2016-04-10 00:20:00,2,34825,0,0.00,2,2,0,2,22409,49039,9300,33744,0,0,0,0,0.00,0.00,0.00,0.00
2016-04-10 00:30:00,2,38326,0,0.00,2,2,0,2,21527,49443,8588,40947,0,0,0,0,0.00,0.00,0.00,0.00
2016-04-10 00:40:00,2,37374,0,0.00,2,2,0,2,23218,50000,9205,37390,0,0,0,0,0.00,0.00,0.00,0.00
2016-04-10 00:50:00,2,37366,0,0.00,2,2,0,2,24529,49640,7589,38783,0,0,0,0,0.00,0.00,0.00,0.00
2016-04-10 01:00:00,2,34177,0,0.00,2,2,0,2,16116,50000,11173,34392,0,0,0,0,0.00,0.00,0.00,0.00
2016-04-10 01:10:00,2,36864,0,0.00,2,2,0,2,18048,50000,10289,34680,0,0,0,0,0.00,0.00,0.00,0.00
2016-04-10 01:20:00,2,32322,0,0.00,2,2,0,2,24601,43798,5697,31266,0,0,0,0,0.00,0.00,0.00,0.00
2016-04-10 01:30:00,2,29566,0,0.00,2,2,0,2,17153,46134,8356,26410,0,0,0,0,0.00,0.00,0.00,0.00
2016-04-10 01:40:00,2,38407,0,0.00,2,2,0,2,28684,50000,7006,38256,0,0,0,0,0.00,0.00,0.00,0.00
2016-04-10 01:50:00,2,44286,0,0.00,2,2,0,2,34049,50000,5911,46186,0,0,0,0,0.00,0.00,0.00,0.00
2016-04-10 02:00:00,2,39327,0,0.00,2,2,0,2,27874,50000,6695,39268,0,0,0,0,0.00,0.00,0.00,0.00
2016-04-10 02:10:00,2,38229,0,0.00,2,2,0,2,22053,50000,9872,39773,0,0,0,0,0.00,0.00,0.00,0.00
2016-04-10 02:20:00,2,34306,0,0.00,2,2,0,2,18835,50000,9721,34744,0,0,0,0,0.00,0.00,0.00,0.00
2016-04-10 02:30:00,2,40310,0,0.00,2,2,0,2,26468,50000,9001,40340,0,0,0,0,0.00,0.00,0.00,0.00
2016-04-10 02:40:00,2,34235,0,0.00,2,2,0,2,20989,47394,9555,34125,0,0,0,0,0.00,0.00,0.00,0.00
2016-04-10 02:50:00,2,31727,0,0.00,2,2,0,2,20114,44839,8041,29912,0,0,0,0,0.00,0.00,0.00,0.00
2016-04-10 03:00:00,2,40255,0,0.00,2,2,0,2,31175,50000,6811,40344,0,0,0,0,0.00,0.00,0.00,0.00
2016-04-10 03:10:00,2,38853,0,0.00,2,2,0,2,25076,50000,7410,38070,0,0,0,0,0.00,0.00,0.00,0.00
2016-04-10 03:20:00,2,39599,0,0.00,2,2,0,2,27217,50000,6471,40223,0,0,0,0,0.00,0.00,0.00,0.00
2016-04-10 03:30:00,2,41875,0,0.00,2,2,0,2,28011,47086,5648,44000,0,0,0,0,0.00,0.00,0.00,0.00
2016-04-10 03:40:00,2,33950,0,0.00,2,2,0,2,18469,45450,8887,34756,0,0,0,0,0.00,0.00,0.00,0.00
2016-04-10 03:50:00,2,34596,0,0.00,2,2,0,2,24983,48647,8310,31762,0,0,0,0,0.00,0.00,0.00,0.00
2016-04-10 04:00:00,2,44437,0,0.00,2,2,0,2,31242,50000,6540,48006,0,0,0,0,0.00,0.00,0.00,0.00
2016-04-10 04:10:00,2,41013,0,0.00,2,2,0,2,24613,50000,7886,41540,0,0,0,0,0.00,0.00,0.00,0.00
2016-04-10 04:20:00,2,31602,0,0.00,2,2,0,2,17545,49289,8335,30548,0,0,0,0,0.00,0.00,0.00,0.00
2016-04-10 04:30:00,2,46226,0,0.00,2,2,0,2,37273,50000,4295,47460,0,0,0,0,0.00,0.00,0.00,0.00
2016-04-10 04:40:00,2,43852,0,0.00,2,2,0,2,30440,50000,6253,44404,0,0,0,0,0.00,0.00,0.00,0.00
2016-04-10 04:50:00,2,34658,0,0.00,2,2,0,2,25051,50000,6569,35050,0,0,0,0,0.00,0.00,0.00,0.00
2016-04-10 05:00:00,2,36477,0,0.00,2,2,0,2,30159,43073,4726,37550,0,0,0,0,0.00,0.00,0.00,0.00
2016-04-10 05:10:00,2,46090,0,0.00,2,2,0,2,39726,50000,3218,45328,0,0,0,0,0.00,0.00,0.00,0.00
2016-04-10 05:20:00,2,43849,0,0.00,2,2,0,2,37644,50000,4329,43133,0,0,0,0,0.00,0.00,0.00,0.00
2016-04-10 05:30:00,2,37795,0,0.00,2,2,0,2,19455,45846,8272,42657,0,0,0,0,0.00,0.00,0.00,0.00
2016-04-10 05:40:00,2,46312,0,0.00,2,2,0,2,32224,50000,5292,48338,0,0,0,0,0.00,0.00,0.00,0.00
2016-04-10 05:50:00,2,45752,0,0.00,2,2,0,2,34031,50000,5569,49780,0,0,0,0,0.00,0.00,0.00,0.00
2016-04-10 06:00:00,2,46571,0,0.00,2,2,0,2,34030,50000,4583,47733,0,0,0,0,0.00,0.00,0.00,0.00
2016-04-10 06:10:00,2,45226,0,0.00,2,2,0,2,36363,50000,3950,46298,0,0,0,0,0.00,0.00,0.00,0.00
2016-04-10 06:20:00,2,44103,0,0.00,2,2,0,2,35327,50000,5838,45338,0,0,0,0,0.00,0.00,0.00,0.00
2016-04-10 06:30:00,2,44776,0,0.00,2,2,0,2,36746,50000,4444,44408,0,0,0,0,0.00,0.00,0.00,0.00
2016-04-10 06:40:00,2,45815,0,0.00,2,2,0,2,39404,50000,3963,45840,0,0,0,0,0.00,0.00,0.00,0.00
2016-04-10 06:50:00,2,46252,0,0.00,2,2,0,2,40542,50000,3297,47043,0,0,0,0,0.00,0.00,0.00,0.00
2016-04-10 07:00:00,2,48999,0,0.00,2,2,0,2,44885,50000,2003,50000,0,0,0,0,0.00,0.00,0.00,0.00
2016-04-10 07:10:00,2,47393,0,0.00,2,2,0,2,40709,50000,3211,49483,0,0,0,0,0.00,0.00,0.00,0.00
2016-04-10 07:20:00,2,48997,0,0.00,2,2,0,2,42769,50000,2169,50000,0,0,0,0,0.00,0.00,0.00,0.00
2016-04-10 07:30:00,2,45619,0,0.00,2,2,0,2,37845,50000,3893,45849,0,0,0,0,0.00,0.00,0.00,0.00
2016-04-10 07:40:00,2,47678,0,0.00,2,2,0,2,40933,50000,2914,48724,0,0,0,0,0.00,0.00,0.00,0.00
2016-04-10 07:50:00,2,46147,0,0.00,2,2,0,2,39460,50000,4099,48462,0,0,0,0,0.00,0.00,0.00,0.00
2016-04-10 08:00:00,2,48481,0,0.00,2,2,0,2,39054,50000,3253,50000,0,0,0,0,0.00,0.00,0.00,0.00
2016-04-10 08:10:00,2,49983,0,0.00,2,2,0,2,49828,50000,52,50000,0,0,0,0,0.00,0.00,0.00,0.00
2016-04-10 08:20:00,2,49457,0,0.00,2,2,0,2,46659,50000,993,50000,0,0,0,0,0.00,0.00,0.00,0.00
2016-04-10 08:30:00,2,49379,0,0.00,2,2,0,2,45867,50000,1227,50000,0,0,0,0,0.00,0.00,0.00,0.00
2016-04-10 08:40:00,2,49429,0,0.00,2,2,0,2,46635,50000,1164,50000,0,0,0,0,0.00,0.00,0.00,0.00
2016-04-10 08:50:00,2,47286,0,0.00,2,2,0,2,37159,50000,4757,50000,0,0,0,0,0.00,0.00,0.00,0.00
2016-04-10 09:00:00,2,50000,0,0.00,2,2,0,2,50000,50000,0,50000,0,0,0,0,0.00,0.00,0.00,0.00
2016-04-10 09:10:00,2,48067,0,0.00,2,2,0,2,40632,50000,3266,50000,0,0,0,0,0.00,0.00,0.00,0.00
2016-04-10 09:20:00,2,49824,0,0.00,2,2,0,2,48960,50000,359,50000,0,0,0,0,0.00,0.00,0.00,0.00
2016-04-10 09:30:00,2,49058,0,0.00,2,2,0,2,45542,50000,1752,50000,0,0,0,0,0.00,0.00,0.00,0.00
2016-04-10 09:40:00,2,49496,0,0.00,2,2,0,2,44965,50000,1510,50000,0,0,0,0,0.00,0.00,0.00,0.00
2016-04-10 09:50:00,2,49925,0,0.00,2,2,0,2,49434,50000,173,50000,0,0,0,0,0.00,0.00,0.00,0.00
2016-04-10 10:00:00,2,49538,0,0.00,2,2,0,2,45382,50000,1385,50000,0,0,0,0,0.00,0.00,0.00,0.00
2016-04-10 10:10:00,2,48869,0,0.00,2,2,0,2,46413,50000,1446,50000,0,0,0,0,0.00,0.00,0.00,0.00
2016-04-10 10:20:00,2,49378,0,0.00,2,2,0,2,46289,50000,1272,50000,0,0,0,0,0.00,0.00,0.00,0.00
2016-04-10 10:30:00,2,49753,0,0.00,2,2,0,2,47698,50000,687,50000,0,0,0,0,0.00,0.00,0.00,0.00
2016-04-10 10:40:00,2,49720,0,0.00,2,2,0,2,48200,50000,588,50000,0,0,0,0,0.00,0.00,0.00,0.00
2016-04-10 10:50:00,2,49755,0,0.00,2,2,0,2,48137,50000,567,50000,0,0,0,0,0.00,0.00,0.00,0.00
2016-04-10 11:00:00,2,49525,0,0.00,2,2,0,2,46457,50000,1084,50000,0,0,0,0,0.00,0.00,0.00,0.00
2016-04-10 11:10:00,2,49686,0,0.00,2,2,0,2,47805,50000,687,50000,0,0,0,0,0.00,0.00,0.00,0.00
2016-04-10 11:20:00,2,23698,57,0.10,2,2,0,2,13071,40225,8511,21624,0,71,28,71,0.00,0.35,0.12,0.05
2016-04-10 11:30:00,2,22733,71,0.12,2,2,0,2,12948,33808,5526,22924,71,71,0,71,0.00,0.45,0.15,0.05
2016-04-10 11:40:00,2,32152,71,0.03,2,2,0,2,22258,40011,6334,33986,71,71,0,71,0.00,0.10,0.03,0.00
2016-04-10 11:50:00,2,49567,8,0.00,2,2,0,2,46900,50000,962,50000,0,41,16,0,0.00,0.00,0.00,0.00
2016-04-10 12:00:00,2,50000,0,0.00,2,2,0,2,50000,50000,0,50000,0,0,0,0,0.00,0.00,0.00,0.00
2016-04-10 12:10:00,2,29247,43,0.05,2,2,0,2,13871,50000,10906,28219,0,71,35,71,0.00,0.20,0.07,0.00
2016-04-10 12:20:00,2,10410,71,0.42,2,2,0,2,6030,14373,2868,10272,71,71,0,71,0.15,0.90,0.25,0.35
2016-04-10 12:30:00,2,7723,71,0.72,2,2,0,2,3587,12181,2451,7408,71,71,0,71,0.10,1.25,0.32,0.68
2016-04-10 12:40:00,2,10310,71,0.42,2,2,0,2,7982,13819,1569,10040,71,71,0,71,0.05,1.10,0.33,0.35
2016-04-10 12:50:00,2,13886,72,0.28,2,2,0,2,12181,18395,1812,13412,71,74,1,71,0.10,0.55,0.12,0.28
2016-04-10 13:00:00,2,13368,71,0.23,2,2,0,2,10177,16531,2003,13074,71,71,0,71,0.05,0.45,0.12,0.23
2016-04-10 13:10:00,2,19658,71,0.18,2,2,0,2,13316,36607,7421,15396,71,71,0,71,0.00,0.65,0.19,0.15
2016-04-10 13:20:00,2,30885,70,0.06,2,2,0,2,18190,38869,6418,32030,64,77,5,71,0.00,0.30,0.09,0.05
2016-04-10 13:30:00,2,18031,70,0.25,2,2,0,2,4834,33547,9132,17236,54,77,8,71,0.00,0.75,0.22,0.25
2016-04-10 13:40:00,2,13582,71,0.27,2,2,0,2,8342,17970,3208,13438,71,71,0,71,0.05,0.70,0.18,0.23
2016-04-10 13:50:00,2,29009,73,0.12,2,2,0,2,24244,37024,3895,27697,71,77,3,71,0.00,0.30,0.10,0.12
2016-04-10 14:00:00,2,18850,74,0.21,2,2,0,2,9317,32423,7875,21403,71,77,3,74,0.00,0.55,0.18,0.20
2016-04-10 14:10:00,2,18671,71,0.20,2,2,0,2,7938,29658,7207,19104,71,71,0,71,0.00,0.85,0.27,0.05
2016-04-10 14:20:00,2,27524,72,0.04,2,2,0,2,14112,46014,10574,24692,64,77,6,77,0.00,0.15,0.05,0.03
2016-04-10 14:30:00,2,49548,15,0.00,2,2,0,2,47653,50000,800,50000,0,77,31,0,0.00,0.00,0.00,0.00
2016-04-10 14:40:00,2,48060,0,0.00,2,2,0,2,44242,50000,2414,49526,0,0,0,0,0.00,0.00,0.00,0.00
2016-04-10 14:50:00,2,50000,0,0.00,2,2,0,2,50000,50000,0,50000,0,0,0,0,0.00,0.00,0.00,0.00
2016-04-10 15:00:00,2,50000,0,0.00,2,2,0,2,50000,50000,0,50000,0,0,0,0,0.00,0.00,0.00,0.00
2016-04-10 15:10:00,2,50000,0,0.00,2,2,0,2,50000,50000,0,50000,0,0,0,0,0.00,0.00,0.00,0.00
2016-04-10 15:20:00,2,50000,0,0.00,2,2,0,2,50000,50000,0,50000,0,0,0,0,0.00,0.00,0.00,0.00
2016-04-10 15:30:00,2,49900,0,0.00,2,2,0,2,49005,50000,298,50000,0,0,0,0,0.00,0.00,0.00,0.00
2016-04-10 15:40:00,2,50000,0,0.00,2,2,0,2,50000,50000,0,50000,0,0,0,0,0.00,0.00,0.00,0.00
2016-04-10 15:50:00,2,49723,0,0.00,2,2,0,2,48372,50000,565,50000,0,0,0,0,0.00,0.00,0.00,0.00
2016-04-10 16:00:00,2,50000,0,0.00,2,2,0,2,50000,50000,0,50000,0,0,0,0,0.00,0.00,0.00,0.00
2016-04-10 16:10:00,2,50000,0,0.00,2,2,0,2,50000,50000,0,50000,0,0,0,0,0.00,0.00,0.00,0.00
2016-04-10 16:20:00,2,50000,0,0.00,2,2,0,2,50000,50000,0,50000,0,0,0,0,0.00,0.00,0.00,0.00
2016-04-10 16:30:00,2,50000,0,0.00,2,2,0,2,50000,50000,0,50000,0,0,0,0,0.00,0.00,0.00,0.00
2016-04-10 16:40:00,2,50000,0,0.00,2,2,0,2,50000,50000,0,50000,0,0,0,0,0.00,0.00,0.00,0.00
2016-04-10 16:50:00,2,50000,0,0.00,2,2,0,2,50000,50000,0,50000,0,0,0,0,0.00,0.00,0.00,0.00
2016-04-10 17:00:00,2,50000,0,0.00,2,2,0,2,50000,50000,0,50000,0,0,0,0,0.00,0.00,0.00,0.00
2016-04-10 17:10:00,2,50000,0,0.00,2,2,0,2,50000,50000,0,50000,0,0,0,0,0.00,0.00,0.00,0.00
2016-04-10 17:20:00,2,50000,0,0.00,2,2,0,2,50000,50000,0,50000,0,0,0,0,0.00,0.00,0.00,0.00
2016-04-10 17:30:00,2,50000,0,0.00,2,2,0,2,50000,50000,0,50000,0,0,0,0,0.00,0.00,0.00,0.00
2016-04-10 17:40:00,2,50000,0,0.00,2,2,0,2,50000,50000,0,50000,0,0,0,0,0.00,0.00,0.00,0.00
2016-04-10 17:50:00,2,50000,0,0.00,2,2,0,2,50000,50000,0,50000,0,0,0,0,0.00,0.00,0.00,0.00
2016-04-10 18:00:00,2,50000,0,0.00,2,2,0,2,50000,50000,0,50000,0,0,0,0,0.00,0.00,0.00,0.00
2016-04-10 18:10:00,2,50000,0,0.00,2,2,0,2,50000,50000,0,50000,0,0,0,0,0.00,0.00,0.00,0.00
2016-04-10 18:20:00,2,50000,0,0.00,2,2,0,2,50000,50000,0,50000,0,0,0,0,0.00,0.00,0.00,0.00
2016-04-10 18:30:00,2,50000,0,0.00,2,2,0,2,50000,50000,0,50000,0,0,0,0,0.00,0.00,0.00,0.00
2016-04-10 18:40:00,2,50000,0,0.00,2,2,0,2,50000,50000,0,50000,0,0,0,0,0.00,0.00,0.00,0.00
2016-04-10 18:50:00,2,50000,0,0.00,2,2,0,2,50000,50000,0,50000,0,0,0,0,0.00,0.00,0.00,0.00
2016-04-10 19:00:00,2,50000,0,0.00,2,2,0,2,50000,50000,0,50000,0,0,0,0,0.00,0.00,0.00,0.00
2016-04-10 19:10:00,2,50000,0,0.00,2,2,0,2,50000,50000,0,50000,0,0,0,0,0.00,0.00,0.00,0.00
2016-04-10 19:20:00,2,50000,0,0.00,2,2,0,2,50000,50000,0,50000,0,0,0,0,0.00,0.00,0.00,0.00
2016-04-10 19:30:00,2,50000,0,0.00,2,2,0,2,50000,50000,0,50000,0,0,0,0,0.00,0.00,0.00,0.00
2016-04-10 19:40:00,2,50000,0,0.00,2,2,0,2,50000,50000,0,50000,0,0,0,0,0.00,0.00,0.00,0.00
2016-04-10 19:50:00,2,50000,0,0.00,2,2,0,2,50000,50000,0,50000,0,0,0,0,0.00,0.00,0.00,0.00
2016-04-10 20:00:00,2,50000,0,0.00,2,2,0,2,50000,50000,0,50000,0,0,0,0,0.00,0.00,0.00,0.00
2016-04-10 20:10:00,2,50000,0,0.00,2,2,0,2,50000,50000,0,50000,0,0,0,0,0.00,0.00,0.00,0.00
2016-04-10 20:20:00,2,49910,0,0.00,2,2,0,2,49096,50000,271,50000,0,0,0,0,0.00,0.00,0.00,0.00
2016-04-10 20:30:00,2,50000,0,0.00,2,2,0,2,50000,50000,0,50000,0,0,0,0,0.00,0.00,0.00,0.00
2016-04-10 20:40:00,2,50000,0,0.00,2,2,0,2,50000,50000,0,50000,0,0,0,0,0.00,0.00,0.00,0.00
2016-04-10 20:50:00,2,50000,0,0.00,2,2,0,2,50000,50000,0,50000,0,0,0,0,0.00,0.00,0.00,0.00
2016-04-10 21:00:00,2,49660,0,0.00,2,2,0,2,46597,50000,1021,50000,0,0,0,0,0.00,0.00,0.00,0.00
2016-04-10 21:10:00,2,49795,0,0.00,2,2,0,2,48155,50000,550,50000,0,0,0,0,0.00,0.00,0.00,0.00
2016-04-10 21:20:00,2,49509,0,0.00,2,2,0,2,45233,50000,1426,50000,0,0,0,0,0.00,0.00,0.00,0.00
2016-04-10 21:30:00,2,49749,0,0.00,2,2,0,2,48732,50000,502,50000,0,0,0,0,0.00,0.00,0.00,0.00
2016-04-10 21:40:00,2,49669,0,0.00,2,2,0,2,47720,50000,719,50000,0,0,0,0,0.00,0.00,0.00,0.00
2016-04-10 21:50:00,2,49394,0,0.00,2,2,0,2,45206,50000,1446,50000,0,0,0,0,0.00,0.00,0.00,0.00
2016-04-10 22:00:00,2,48483,0,0.00,2,2,0,2,42252,50000,2440,50000,0,0,0,0,0.00,0.00,0.00,0.00
2016-04-10 22:10:00,2,49856,0,0.00,2,2,0,2,48560,50000,432,50000,0,0,0,0,0.00,0.00,0.00,0.00
2016-04-10 22:20:00,2,39589,0,0.00,2,2,0,2,35373,43818,2955,40234,0,0,0,0,0.00,0.00,0.00,0.00
2016-04-10 22:30:00,2,41051,0,0.00,2,2,0,2,26044,47384,6006,42600,0,0,0,0,0.00,0.00,0.00,0.00
2016-04-10 22:40:00,2,47839,0,0.00,2,2,0,2,42307,50000,2718,49324,0,0,0,0,0.00,0.00,0.00,0.00
2016-04-10 22:50:00,2,44526,0,0.00,2,2,0,2,31579,50000,6007,45615,0,0,0,0,0.00,0.00,0.00,0.00
2016-04-10 23:00:00,2,39464,0,0.00,2,2,0,2,27919,50000,7128,40827,0,0,0,0,0.00,0.00,0.00,0.00
2016-04-10 23:10:00,2,42569,0,0.00,2,2,0,2,30972,50000,6866,43764,0,0,0,0,0.00,0.00,0.00,0.00
2016-04-10 23:20:00,2,42236,0,0.00,2,2,0,2,25715,50000,7552,44048,0,0,0,0,0.00,0.00,0.00,0.00
2016-04-10 23:30:00,2,37880,0,0.00,2,2,0,2,22222,50000,9883,39212,0,0,0,0,0.00,0.00,0.00,0.00
2016-04-10 23:40:00,2,38672,0,0.00,2,2,0,2,22389,50000,8740,37221,0,0,0,0,0.00,0.00,0.00,0.00
2016-04-10 23:50:00,2,35135,0,0.00,2,2,0,2,24533,50000,9143,31469,0,0,0,0,0.00,0.00,0.00,0.00
